Simultaneous Nadir Overpasses (SNOs) Predictions

Prediction of SNOs between LANDSAT-8 and METOP-A Satellite Orbit:

Table of predicted SNOs for the next 14.0 days since TLE Epoch: 6/6/2015
Index Date (LANDSAT-8) Time (LANDSAT-8) Lat,Lon (LANDSAT-8) SZA (LANDSAT-8 ) Date (METOP-A) Time (METOP-A) Lat,Lon (METOP-A) SZA (METOP-A ) Distance(km) Time Diff (sec)
1 06/09/2015 05:20:48 81.20, 140.92 60.60 06/09/2015 05:19:59 81.19, 140.92 60.57 0.25 49
2 06/09/2015 06:10:14 -81.22, -51.11 119.36 06/09/2015 06:10:38 -81.21, -51.15 119.36 0.75 24
3 06/12/2015 00:55:04 81.20,-152.63 60.37 06/12/2015 00:54:18 81.19,-152.67 60.35 0.73 46
4 06/12/2015 01:44:30 -81.22, 15.36 119.58 06/12/2015 01:44:57 -81.21, 15.29 119.58 1.32 27
5 06/14/2015 20:29:21 81.19, -86.28 60.19 06/14/2015 20:28:38 81.19, -86.30 60.17 0.35 43
6
